Wind_Speed
17 19 20 21 22 23 24 26 25 33 35 33 35 35 33 31 31 32 33 33 33 33 33 33 33 34 35 35 36 38 39 40 41 43 44 46 47 47 48 49 50 50 50 48
17 18 17 20 22 23 24 25 24 30 29 28 30 31 30 28 28 29 30 30 30 29 30 31 32 33 33 34 35 36 37 38 40 42 43 45 46 48 49 49 50 51 51 50
15 17 17 20 21 20 21 22 23 25 26 26 27 28 28 24 24 24 26 26 27 27 28 28 28 29 29 30 31 32 33 35 37 39 40 42 44 46 47 49 50 51 51 50
13 15 16 17 18 17 19 20 21 22 24 26 25 26 27 25 24 23 23 23 24 24 24 25 25 25 26 27 27 27 28 30 32 33 35 37 39 41 43 46 47 47 48 49
10 11 12 14 15 17 19 20 21 21 20 20 21 23 26 25 24 23 23 22 21 21 22 22 23 23 23 23 24 25 26 27 28 29 30 31 33 35 37 40 42 43 44 45
8 9 11 13 15 17 18 19 18 17 18 19 20 22 25 24 23 22 22 21 20 20 20 20 20 19 19 19 19 20 21 23 24 24 23 25 26 28 31 33 35 37 39 40
4 6 9 12 14 15 17 18 19 18 18 18 21 21 21 21 21 20 19 18 18 17 18 17 17 17 16 16 16 17 18 18 19 19 19 19 20 22 23 24 26 28 31 33
5 7 9 12 14 16 17 17 16 13 9 15 17 18 18 19 18 18 17 15 15 16 17 17 17 17 17 17 17 17 17 17 17 16 15 15 16 16 17 17 19 21 24 27
4 7 10 12 13 15 16 16 15 14 12 11 17 16 16 17 17 16 15 15 15 16 17 17 18 19 19 19 20 19 18 17 17 17 15 15 14 12 12 11 12 14 16 19
5 7 9 11 13 14 15 15 15 15 13 10 13 17 18 17 17 16 15 15 16 18 18 19 19 20 20 21 22 21 20 19 18 17 16 16 14 12 10 8 8 8 10 12
5 7 9 11 13 15 15 16 16 15 15 14 13 15 16 16 15 15 15 15 17 18 18 19 19 20 20 21 22 23 22 21 20 19 18 17 15 14 12 9 8 6 6 9
6 8 10 12 14 15 15 16 16 16 15 13 14 13 14 14 14 15 15 16 17 18 19 19 20 20 21 21 21 22 22 22 21 21 20 19 18 16 15 13 10 8 6 6
7 8 10 12 14 14 15 16 17 16 15 15 14 13 13 14 14 15 16 17 18 19 19 20 20 20 21 21 21 22 22 22 22 21 21 20 19 18 16 14 13 11 8 6
7 8 11 13 15 15 15 16 17 16 16 16 15 14 13 13 14 15 16 18 19 19 19 20 20 20 21 21 22 22 22 22 22 21 21 20 19 18 17 16 14 12 10 8
6 7 10 12 13 15 15 16 16 16 16 16 14 14 13 13 14 15 17 18 19 19 20 20 20 21 21 21 21 22 22 22 22 21 21 21 20 20 19 17 16 14 12 11
5 7 9 10 12 14 15 15 16 16 16 15 14 14 14 13 14 15 16 17 18 18 19 20 20 21 21 21 21 21 22 22 22 22 22 21 21 21 20 19 17 16 15 13
5 7 8 9 11 12 14 15 15 16 16 15 14 14 14 13 14 14 16 17 17 18 19 20 20 20 20 20 21 22 22 23 23 23 22 22 22 21 21 20 19 18 17 16
6 7 8 9 10 11 14 14 14 15 15 15 14 14 13 13 13 14 15 16 17 17 18 19 19 20 20 20 21 22 22 22 23 23 24 23 23 22 22 21 21 20 20 19
7 7 8 9 9 10 11 12 13 13 14 14 14 14 13 13 13 13 14 15 16 16 17 18 19 19 19 20 21 22 22 23 23 24 24 24 24 24 23 23 22 21 21 21
8 9 9 9 9 10 10 11 11 13 13 13 14 13 13 13 13 13 13 14 15 16 16 17 18 18 18 19 20 21 22 23 23 24 24 24 25 24 24 23 23 23 22 22
10 10 10 10 10 10 10 10 11 11 12 13 13 14 13 13 14 13 13 13 14 14 15 16 16 17 17 18 19 20 21 23 24 24 25 24 25 25 25 24 24 24 23 23
12 12 12 12 11 11 11 11 11 11 11 11 12 12 13 14 14 14 14 14 13 13 14 14 15 15 16 16 17 18 20 22 23 24 25 25 25 25 25 25 24 24 24 24
15 14 14 14 14 13 13 13 12 12 11 11 11 11 12 12 13 14 14 14 13 13 13 13 13 14 15 15 16 17 18 20 21 23 24 25 25 25 25 25 25 24 24 24
17 17 17 17 17 16 15 15 14 14 13 12 11 10 10 11 12 12 13 13 13 13 12 12 12 13 13 14 15 16 16 18 19 21 22 24 25 25 26 26 25 25 25 25
20 20 20 20 21 19 18 17 17 16 15 14 13 12 11 11 11 11 12 12 12 13 13 12 12 12 12 13 14 14 15 16 17 19 20 22 23 25 25 25 25 25 25 25
23 23 23 23 24 23 22 20 20 19 18 17 16 15 14 13 12 12 11 12 12 12 12 12 12 12 12 12 12 13 13 14 16 17 18 20 21 22 24 25 25 25 25 24
Wind_Direction
274 281 288 295 297 297 295 293 290 286 298 301 301 302 302 301 298 296 295 294 294 293 292 290 289 288 286 284 282 280 279 277 275 274 273 271 270 269 267 266 265 263 261 260
278 283 292 295 297 298 298 296 293 293 305 306 305 305 306 305 302 301 299 297 296 295 294 293 292 291 288 287 286 284 282 280 278 276 274 271 270 269 268 266 265 263 261 260
280 296 302 301 303 306 305 305 305 304 311 309 309 309 312 314 310 307 303 301 299 297 297 297 296 294 291 290 289 288 286 283 280 277 274 271 270 269 267 266 264 263 261 259
286 298 302 306 310 314 314 317 314 311 312 313 318 317 320 326 324 318 313 309 307 304 304 303 302 299 298 296 294 292 291 289 286 282 277 274 271 270 268 265 263 261 258 257
295 301 308 314 319 321 322 322 320 317 317 319 324 324 324 331 328 325 322 319 317 315 314 313 310 307 305 303 301 300 298 297 295 290 283 279 277 274 271 266 262 259 256 253
307 314 319 324 327 328 328 327 326 326 335 339 337 327 326 332 329 328 327 326 325 325 326 325 324 320 318 317 315 313 309 305 303 300 295 287 283 279 275 269 263 257 253 250
313 326 333 337 338 338 337 339 342 345 341 331 331 329 334 334 333 333 333 334 337 340 344 346 347 346 345 343 339 336 330 325 320 314 307 300 293 288 281 273 264 257 251 248
356 359 355 350 349 347 348 349 353 350 326 319 334 339 343 342 342 343 347 353 358 2 6 9 12 13 10 6 1 355 351 347 342 337 331 326 313 303 292 279 268 259 251 245
15 12 4 360 357 357 357 0 1 358 354 337 334 353 356 354 357 2 7 11 15 16 19 20 19 18 17 15 11 8 5 2 360 357 356 353 345 329 316 296 278 266 255 246
33 21 17 11 8 9 9 7 6 3 4 356 343 356 4 9 9 13 16 19 22 23 24 24 23 23 22 21 21 20 18 13 8 7 4 6 3 357 346 332 304 276 262 250
49 33 31 23 19 17 15 12 10 9 12 9 4 7 9 13 15 18 22 24 24 25 24 22 21 21 21 21 22 21 21 21 19 17 15 14 13 12 9 359 348 328 286 265
58 37 36 32 25 21 19 17 16 15 16 17 19 22 19 19 22 24 25 24 22 22 21 21 22 22 21 20 19 20 22 24 24 24 24 23 21 19 17 14 9 358 336 296
60 43 38 39 33 25 22 22 23 24 25 28 29 30 26 27 28 27 25 21 19 20 20 22 22 22 22 22 22 23 25 26 27 27 27 26 26 24 21 17 16 14 7 352
60 43 37 33 31 29 27 27 26 27 29 31 33 32 30 30 28 26 23 21 20 22 23 24 25 25 26 26 27 28 29 29 28 27 26 26 26 26 26 24 22 19 13 4
52 39 37 34 31 29 29 29 29 29 30 30 31 30 28 27 25 22 19 19 21 23 25 27 27 27 27 27 27 27 27 26 26 26 26 27 28 27 26 25 24 20 13 5
38 30 30 31 31 30 28 29 29 30 30 30 30 29 26 24 22 19 18 20 21 23 25 26 25 25 26 26 26 26 25 25 25 25 26 26 26 26 24 23 21 17 13 5
18 15 17 22 26 27 28 27 28 27 28 28 27 25 24 22 20 19 19 19 21 23 23 24 23 23 23 24 25 25 24 24 23 23 22 23 22 21 20 19 17 14 11 5
356 358 2 5 12 19 21 22 21 21 22 22 23 22 21 19 18 18 18 18 19 20 21 22 23 23 23 23 23 22 21 22 22 21 21 20 19 17 16 15 14 13 12 8
331 338 342 346 355 4 10 12 14 15 17 17 16 16 15 13 12 12 12 14 16 18 19 20 21 22 22 22 22 22 21 21 21 20 20 19 17 16 14 14 13 12 11 9
310 317 322 329 335 344 355 359 5 9 10 11 10 9 8 9 8 6 6 7 10 12 15 17 18 19 20 22 23 23 22 22 22 20 19 18 17 16 15 15 14 14 13 12
296 301 307 312 318 328 335 340 348 354 1 5 5 6 5 4 4 3 1 1 2 5 8 10 13 15 18 20 21 22 23 23 23 21 19 18 17 17 16 16 15 16 15 15
287 290 294 299 304 312 315 321 327 334 344 350 356 359 1 2 2 0 358 357 358 359 2 6 8 11 14 16 18 19 21 21 22 21 21 20 19 18 18 17 17 17 17 18
281 285 287 290 295 298 301 305 309 314 321 330 338 346 352 356 359 360 359 357 356 355 357 360 2 6 8 10 12 15 17 18 20 21 21 21 21 20 19 19 19 19 19 20
277 279 280 282 285 287 290 293 296 299 302 308 315 324 334 342 349 353 355 355 355 353 351 352 354 358 1 4 7 10 13 15 17 19 20 21 21 21 21 21 21 22 22 23
277 275 275 277 278 279 281 285 287 289 290 293 296 301 309 319 329 338 344 347 348 349 350 348 347 348 352 356 359 3 6 10 13 15 17 19 21 22 22 23 23 24 25 26
273 273 272 273 274 276 276 277 278 281 283 284 285 288 292 298 304 313 321 329 335 338 340 343 343 341 342 344 348 352 356 2 7 10 13 16 19 20 22 23 25 26 26 28
Height
5909 5909 5907 5906 5905 5904 5901 5899 5896 5888 5886 5883 5877 5873 5869 5867 5864 5860 5857 5854 5852 5850 5847 5845 5843 5841 5839 5838 5836 5834 5833 5832 5832 5831 5830 5830 5830 5830 5831 5832 5835 5837 5839 5842
5906 5905 5905 5903 5901 5899 5897 5894 5891 5883 5881 5878 5872 5868 5863 5861 5857 5854 5851 5848 5845 5843 5840 5838 5835 5833 5830 5829 5827 5825 5823 5822 5820 5819 5818 5818 5818 5818 5819 5820 5822 5824 5827 5830
5903 5902 5901 5899 5897 5895 5892 5889 5885 5881 5876 5873 5869 5863 5859 5856 5853 5849 5846 5843 5840 5837 5834 5832 5829 5826 5823 5820 5818 5816 5813 5811 5809 5807 5806 5805 5805 5805 5806 5807 5809 5811 5814 5818
5900 5900 5898 5896 5894 5891 5888 5885 5881 5877 5873 5868 5865 5859 5854 5851 5848 5845 5841 5838 5835 5832 5829 5826 5822 5819 5816 5813 5810 5808 5805 5802 5799 5797 5795 5794 5793 5793 5793 5793 5795 5798 5801 5806
5898 5898 5896 5894 5891 5888 5885 5881 5877 5873 5869 5865 5861 5857 5852 5849 5845 5842 5838 5835 5831 5828 5825 5821 5817 5814 5811 5808 5804 5801 5798 5795 5791 5788 5786 5784 5783 5782 5781 5781 5783 5785 5788 5793
5897 5896 5894 5892 5889 5886 5882 5879 5875 5871 5866 5863 5860 5857 5851 5848 5844 5840 5836 5832 5829 5825 5821 5818 5814 5810 5807 5803 5800 5796 5792 5789 5785 5782 5779 5776 5774 5773 5772 5771 5772 5774 5777 5782
5895 5894 5892 5890 5887 5884 5881 5877 5872 5867 5864 5862 5859 5856 5853 5847 5843 5839 5835 5831 5827 5824 5820 5816 5812 5808 5805 5801 5797 5793 5789 5785 5781 5777 5774 5771 5768 5766 5765 5764 5764 5765 5768 5772
5894 5893 5891 5889 5886 5883 5879 5876 5872 5869 5866 5862 5859 5855 5853 5847 5843 5838 5834 5831 5827 5824 5820 5816 5812 5808 5804 5800 5796 5791 5787 5782 5778 5774 5771 5767 5764 5762 5760 5759 5759 5759 5761 5764
5893 5892 5891 5888 5886 5883 5879 5875 5871 5868 5865 5862 5858 5855 5852 5847 5843 5839 5835 5832 5828 5825 5821 5817 5813 5809 5805 5801 5796 5791 5786 5782 5778 5774 5770 5766 5763 5760 5758 5756 5755 5755 5757 5759
5894 5893 5891 5889 5886 5883 5879 5875 5872 5868 5864 5862 5859 5854 5851 5847 5844 5840 5837 5834 5830 5827 5823 5819 5815 5811 5807 5802 5797 5792 5787 5783 5779 5775 5771 5767 5764 5760 5758 5755 5754 5753 5754 5756
5894 5893 5892 5889 5886 5883 5879 5876 5872 5868 5864 5861 5858 5858 5852 5849 5846 5843 5839 5836 5833 5829 5825 5821 5817 5813 5808 5804 5799 5795 5790 5785 5781 5776 5772 5769 5765 5762 5759 5757 5755 5754 5754 5754
5894 5893 5891 5889 5886 5883 5880 5876 5872 5869 5865 5862 5859 5860 5854 5851 5848 5845 5842 5839 5835 5831 5827 5823 5819 5815 5810 5806 5802 5797 5793 5788 5783 5779 5775 5771 5767 5764 5761 5758 5756 5755 5754 5754
5895 5894 5892 5890 5889 5885 5881 5877 5873 5870 5867 5863 5861 5861 5856 5853 5850 5848 5845 5841 5837 5833 5829 5825 5821 5817 5813 5809 5805 5800 5795 5791 5786 5782 5778 5774 5770 5767 5763 5761 5758 5757 5755 5755
5895 5894 5893 5891 5888 5885 5882 5879 5875 5872 5869 5865 5863 5861 5858 5855 5853 5850 5847 5844 5840 5836 5832 5828 5824 5820 5816 5811 5807 5803 5799 5794 5790 5786 5781 5777 5773 5770 5766 5763 5761 5759 5757 5756
5896 5895 5893 5891 5888 5886 5883 5880 5877 5874 5871 5868 5865 5863 5860 5858 5855 5852 5849 5846 5842 5838 5834 5830 5826 5823 5818 5814 5810 5806 5802 5798 5793 5789 5785 5780 5776 5773 5769 5766 5763 5761 5759 5757
5896 5896 5894 5892 5890 5887 5885 5882 5879 5876 5873 5870 5867 5865 5862 5860 5857 5854 5851 5848 5844 5841 5837 5833 5829 5825 5822 5818 5814 5810 5805 5801 5797 5792 5788 5784 5780 5776 5772 5769 5766 5763 5760 5758
5897 5896 5894 5893 5890 5889 5886 5884 5880 5878 5875 5872 5870 5868 5864 5862 5859 5856 5853 5850 5846 5843 5840 5836 5832 5828 5824 5821 5817 5812 5808 5804 5800 5795 5791 5787 5783 5779 5775 5771 5768 5764 5761 5758
5897 5895 5894 5893 5892 5889 5889 5884 5882 5879 5876 5874 5871 5868 5866 5863 5861 5858 5855 5852 5849 5845 5842 5839 5835 5831 5827 5824 5820 5815 5811 5807 5803 5798 5794 5790 5785 5781 5777 5773 5769 5765 5762 5758
5896 5895 5894 5893 5891 5890 5888 5885 5883 5880 5878 5875 5872 5870 5867 5864 5862 5859 5857 5854 5851 5847 5844 5841 5838 5834 5830 5826 5822 5818 5814 5810 5806 5801 5797 5792 5788 5784 5779 5775 5771 5766 5762 5758
5895 5894 5893 5892 5890 5889 5889 5886 5883 5882 5879 5876 5873 5870 5868 5865 5863 5861 5858 5855 5852 5849 5846 5843 5840 5836 5833 5829 5825 5822 5818 5813 5809 5804 5800 5795 5791 5786 5781 5777 5772 5768 5763 5759
5894 5893 5892 5890 5889 5889 5887 5885 5884 5883 5881 5876 5874 5871 5868 5866 5864 5862 5858 5856 5853 5851 5848 5845 5842 5838 5835 5832 5828 5825 5821 5816 5812 5807 5803 5798 5793 5789 5784 5779 5774 5770 5765 5760
5891 5890 5890 5889 5888 5889 5886 5884 5883 5882 5879 5876 5874 5871 5869 5866 5864 5861 5859 5856 5854 5851 5849 5846 5843 5840 5837 5834 5830 5827 5823 5819 5815 5810 5806 5801 5796 5791 5787 5782 5777 5772 5767 5762
5888 5888 5887 5887 5887 5885 5883 5882 5881 5879 5878 5876 5874 5871 5869 5867 5864 5862 5859 5857 5854 5852 5849 5847 5844 5842 5839 5836 5832 5829 5825 5822 5818 5813 5809 5804 5799 5794 5790 5785 5780 5775 5770 5765
5884 5883 5883 5882 5882 5881 5880 5879 5878 5877 5876 5874 5873 5871 5868 5866 5864 5862 5859 5857 5854 5852 5850 5847 5845 5843 5840 5837 5834 5831 5827 5824 5820 5816 5812 5808 5803 5798 5793 5788 5783 5778 5773 5768
5879 5879 5878 5878 5878 5877 5877 5876 5875 5874 5873 5872 5870 5869 5867 5865 5863 5861 5859 5857 5854 5852 5850 5847 5845 5843 5840 5838 5835 5832 5829 5826 5822 5819 5815 5810 5806 5801 5796 5791 5786 5782 5777 5772
5873 5873 5873 5873 5872 5872 5872 5872 5871 5870 5869 5868 5867 5866 5865 5863 5861 5860 5858 5856 5854 5851 5849 5847 5845 5842 5840 5838 5835 5833 5830 5827 5824 5821 5817 5813 5809 5805 5800 5795 5790 5786 5781 5776